[[{"header":{"parameterUnit":"m.s-1","parameterCategory":1,"la1":30.2991,"la2":30.254,"lo1":-89.0895,"lo2":-89.0444,"dy":0.0017,"dx":0.0017,"nx":28,"ny":28,"refTime":"2024-08-27T03:00:00:Z","depth":0,"parameterNumber":2,"parameterNumberName":"U-component_of_WINDS"},"data":[0,0,0,0,0,0,0,0,0,0,0,0,0,0,0,0,0,0,0,0,0,0,0,0,0,0,0,0,0,0,0,0,0,0,0,0,0,0,0,0,0,0,0,0,0,0,0,0,0,0,0,0,0,0,0,0,0,0,-3.6075,-3.6076,0,-3.6138,-3.6139,-3.6139,-3.6115,-3.6113,-3.6112,-3.611,-3.6172,-3.6175,-3.6178,0,0,0,0,0,0,0,0,0,0,0,0,0,-3.5933,-3.5935,-3.6075,-3.6076,-3.6077,-3.6138,-3.6139,-3.6139,-3.6115,-3.6113,-3.6111,-3.611,-3.6171,-3.6175,-3.6178,0,0,0,0,0,0,0,0,0,0,0,0,0,-3.5995,-3.5936,-3.6075,-3.6072,-3.6072,-3.6138,-3.6139,-3.614,-3.6115,-3.6113,-3.6111,-3.6109,-3.617,-3.6174,-3.6179,-3.625,0,0,-3.6193,-3.6195,0,0,0,0,0,0,0,0,-3.5991,-3.6,-3.6071,-3.6072,-3.6073,-3.6116,-3.6111,-3.6177,-3.6116,-3.6099,-3.611,-3.6108,-3.6155,-3.6161,-3.6177,-3.6253,-3.6256,-3.6193,-3.6196,-3.6198,-3.6199,0,0,0,0,0,0,0,-3.5987,-3.5997,-3.61,-3.6073,-3.6073,-3.6067,-3.6073,-3.6123,-3.6138,-3.61,-3.6098,-3.6106,-3.6155,-3.6173,-3.6179,-3.6257,-3.6193,-3.6197,-3.62,-3.6201,-3.6395,-3.6397,0,0,0,0,0,0,-3.5983,-3.5994,-3.6098,-3.6102,-3.6026,-3.6071,-3.6078,-3.6104,-3.6138,-3.6141,-3.6108,-3.6105,-3.6166,-3.6173,-3.6181,-3.6266,-3.6198,-3.6202,-3.6205,-3.6393,-3.6396,-3.6398,0,0,0,0,0,0,-3.598,-3.5992,-3.6095,-3.6047,-3.606,-3.6076,-3.6105,-3.6107,-3.6125,-3.6144,-3.6146,-3.6124,-3.6165,-3.6174,-3.6233,-3.6268,-3.6204,-3.6208,-3.639,-3.6394,-3.6397,-3.6438,0,0,0,0,0,0,-3.5976,-3.5991,-3.6019,-3.6048,-3.6063,-3.6147,-3.6108,-3.611,-3.6133,-3.6129,-3.6159,-3.6162,-3.6164,-3.6227,-3.6238,-3.6273,-3.6212,-3.6387,-3.6391,-3.6396,-3.6433,-3.6442,-3.645,0,0,0,0,0,-3.5971,-3.6027,-3.602,-3.6033,-3.6097,-3.6149,-3.6158,-3.6159,-3.6136,-3.6163,-3.6176,-3.6161,-3.6263,-3.6233,-3.6245,-3.6282,-3.6384,-3.639,-3.6395,-3.643,-3.6441,-3.645,0,0,0,0,0,0,-3.6,-3.6031,-3.6024,-3.6091,-3.6118,-3.6145,-3.618,-3.6171,-3.6204,-3.6199,-3.62,-3.6207,-3.6268,-3.6281,-3.6247,-3.6354,-3.632,-3.6328,-3.6342,-3.6352,-3.6361,-3.6355,-3.6215,0,0,0,0,0,-3.6015,-3.6055,-3.608,-3.6137,-3.6151,-3.6163,-3.6186,-3.6185,-3.6213,-3.6224,-3.624,-3.6267,-3.6305,-3.633,-3.6366,-3.6436,-3.6442,-3.6468,-3.6476,-3.6483,-3.6489,-3.6527,-3.6539,-3.6416,-3.6416,-3.6416,0,0,-3.6045,-3.6067,-3.6092,-3.6144,-3.6164,-3.6205,-3.6173,-3.6218,-3.6248,-3.623,-3.6287,-3.6301,-3.633,-3.6396,-3.6425,-3.6409,-3.6525,-3.649,-3.6495,-3.6498,-3.6534,-3.6546,-3.6556,-3.642,-3.6419,-3.6419,0,0,-3.612,-3.6141,-3.6191,-3.6213,-3.6245,-3.6253,-3.6266,-3.6295,-3.6303,-3.6361,-3.6348,-3.6385,-3.645,-3.6472,-3.6492,-3.6578,-3.6565,-3.659,-3.6632,-3.6669,-3.6679,-3.6687,-3.6717,-3.6728,-3.6596,-3.6597,-3.6597,0,-3.6153,-3.6215,-3.6218,-3.6264,-3.6287,-3.6275,-3.6325,-3.6346,-3.6388,-3.6404,-3.6386,-3.6468,-3.6487,-3.6557,-3.6578,-3.6595,-3.6609,-3.6585,-3.6678,-3.6686,-3.6694,-3.6722,-3.6733,-3.6599,-3.6599,-3.6599,-3.6598,0,-3.6253,-3.6296,-3.6333,-3.6375,-3.6402,-3.645,-3.646,-3.6488,-3.6486,-3.6496,-3.6554,-3.6578,-3.6618,-3.6635,-3.6633,-3.6705,-3.6694,-3.6677,-3.6643,-3.6708,-3.6735,-3.6746,-3.6603,-3.6602,-3.6601,-3.6601,0,0,-3.6346,-3.639,-3.6403,-3.6422,-3.6458,-3.6491,-3.654,-3.658,-3.6603,-3.6634,-3.6673,-3.673,-3.6715,-3.6737,-3.6738,-3.6771,-3.6836,-3.6749,-3.675,-3.6763,-3.6916,-3.6928,-3.694,-3.683,-3.6832,-3.6833,-3.6913,0,-3.6423,-3.6507,-3.6512,-3.6588,-3.6627,-3.6618,-3.6659,-3.6686,-3.6697,-3.6732,-3.6745,-3.6785,-3.6762,-3.6776,-3.6808,-3.6821,-3.6867,-3.6816,-3.6865,-3.6867,-3.6856,-3.6954,-3.6966,-3.704,-3.6924,-3.6926,-3.6927,0,-3.6523,-3.6557,-3.6637,-3.6668,-3.6685,-3.6722,-3.676,-3.6795,-3.6824,-3.683,-3.6857,-3.6853,-3.6902,-3.6869,-3.6935,-3.6901,-3.6922,-3.6932,-3.6935,-3.6937,-3.6899,-3.6958,-3.7064,-3.7074,-3.6944,-3.6942,-3.6941,0,-3.6581,-3.6647,-3.6704,-3.672,-3.6758,-3.6784,-3.6801,-3.6829,-3.6854,-3.6887,-3.6903,-3.6942,-3.6962,-3.6993,-3.6999,-3.6975,-3.7066,-3.7033,-3.7072,-3.7071,-3.7089,-3.7087,-3.7198,-3.7106,-3.7106,-3.7106,-3.7106,0,-3.6665,-3.6714,-3.673,-3.6765,-3.682,-3.6825,-3.688,-3.6895,-3.692,-3.6957,-3.6951,-3.6986,-3.6994,-3.7031,-3.7037,-3.7091,-3.7101,-3.7106,-3.7107,-3.7106,-3.7105,-3.7118,-3.7112,-3.7109,-3.7108,-3.7108,-3.7107,0,-3.6738,-3.6751,-3.6811,-3.6843,-3.6852,-3.6891,-3.6917,-3.6951,-3.6962,-3.7009,-3.7021,-3.7039,-3.7082,-3.7092,-3.7143,-3.7147,-3.7211,-3.7208,-3.7201,-3.72,-3.7237,-3.7233,-3.7358,-3.7374,-3.7273,-3.7274,-3.7275,0,-3.6789,-3.6827,-3.6863,-3.6888,-3.6906,-3.6946,-3.6971,-3.6979,-3.7006,-3.7044,-3.7072,-3.7115,-3.7148,-3.7218,-3.7235,-3.7274,-3.727,-3.7312,-3.7276,-3.7274,-3.7269,-3.7266,-3.7269,-3.7318,-3.7319,-3.732,-3.732,0,-3.688,-3.6885,-3.6921,-3.6961,-3.6992,-3.7023,-3.7053,-3.7074,-3.7086,-3.7116,-3.716,-3.7187,-3.724,-3.7282,-3.7321,-3.7338,-3.7331,-3.7332,-3.7343,-3.734,-3.7334,-3.7337,-3.7217,-3.7328,-3.7328,-3.7327,-3.7326,-3.7326,-3.6943,-3.6976,-3.7006,-3.7047,-3.7071,-3.71,-3.7133,-3.7149,-3.7186,-3.723,-3.7233,-3.728,-3.731,-3.7363,-3.7383,-3.742,-3.7407,-3.7423,-3.7427,-3.743,-3.7433,-3.7331,-3.7428,-3.7427,-3.7427,-3.7427,-3.7427,0,-3.7031,-3.7051,-3.7089,-3.7132,-3.7164,-3.7157,-3.719,-3.7218,-3.726,-3.7289,-3.7323,-3.7374,-3.7415,-3.7437,-3.7477,-3.7503,-3.7501,-3.7513,-3.751,-3.7514,-3.7442,-3.7428,-3.7515,-3.7514,-3.7514,-3.7514,-3.7514,-3.7514,-3.7081,-3.7136,-3.7145,-3.7212,-3.7232,-3.7279,-3.7298,-3.7325,-3.7348,-3.7405,-3.7439,-3.7454,-3.748,-3.7522,-3.756,-3.7565,-3.758,-3.7594,-3.7597,-3.7529,-3.752,-3.7511,-3.7498,-3.7597,-3.7597,-3.7666,-3.7667,-3.7667]},{"header":{"parameterUnit":"m.s-1","parameterCategory":1,"la1":30.2991,"la2":30.254,"lo1":-89.0895,"lo2":-89.0444,"dy":0.0017,"dx":0.0017,"nx":28,"ny":28,"refTime":"2024-08-27T03:00:00:Z","depth":0,"parameterNumber":3,"parameterNumberName":"V-component_of_WINDS"},"data":[0,0,0,0,0,0,0,0,0,0,0,0,0,0,0,0,0,0,0,0,0,0,0,0,0,0,0,0,0,0,0,0,0,0,0,0,0,0,0,0,0,0,0,0,0,0,0,0,0,0,0,0,0,0,0,0,0,0,3.9179,3.9179,0,3.9185,3.9185,3.9185,3.9157,3.9156,3.9155,3.9154,3.9159,3.916,3.9161,0,0,0,0,0,0,0,0,0,0,0,0,0,3.9143,3.9144,3.9179,3.9179,3.9179,3.9185,3.9185,3.9185,3.9157,3.9156,3.9155,3.9154,3.9159,3.916,3.9161,0,0,0,0,0,0,0,0,0,0,0,0,0,3.9155,3.9144,3.9179,3.9166,3.9165,3.9185,3.9185,3.9185,3.9157,3.9156,3.9154,3.9153,3.9158,3.9159,3.9161,3.9194,0,0,3.9165,3.9165,0,0,0,0,0,0,0,0,3.9154,3.9156,3.9168,3.9167,3.9165,3.9169,3.9174,3.9188,3.9157,3.916,3.9154,3.9153,3.9163,3.9164,3.9168,3.9194,3.9194,3.9165,3.9166,3.9166,3.9167,0,0,0,0,0,0,0,3.9153,3.9155,3.9181,3.9168,3.9166,3.9159,3.916,3.9176,3.9168,3.9159,3.9157,3.9159,3.9162,3.9166,3.9168,3.9194,3.9165,3.9166,3.9167,3.9167,3.9248,3.9249,0,0,0,0,0,0,3.9154,3.9155,3.9181,3.9181,3.9157,3.9161,3.9161,3.9169,3.9168,3.9167,3.916,3.9157,3.9165,3.9166,3.9168,3.9205,3.9166,3.9168,3.9168,3.9246,3.9248,3.9249,0,0,0,0,0,0,3.9154,3.9157,3.9181,3.9168,3.917,3.9163,3.9172,3.917,3.9174,3.9168,3.9166,3.9165,3.9164,3.9166,3.9187,3.9205,3.9168,3.9169,3.9245,3.9247,3.9249,3.9282,0,0,0,0,0,0,3.9153,3.9157,3.9169,3.9168,3.9171,3.9201,3.9173,3.9171,3.9176,3.9173,3.9173,3.9172,3.9163,3.9186,3.9189,3.9206,3.917,3.9243,3.9246,3.9248,3.9279,3.9285,3.929,0,0,0,0,0,3.9151,3.9178,3.917,3.9173,3.9186,3.9202,3.9203,3.9193,3.9178,3.919,3.9187,3.9172,3.9203,3.9188,3.9191,3.921,3.9242,3.9245,3.9248,3.9277,3.9284,3.9289,0,0,0,0,0,0,3.918,3.9177,3.9168,3.9195,3.9199,3.9197,3.9212,3.9201,3.9208,3.9205,3.9192,3.9192,3.9216,3.9215,3.9198,3.9242,3.922,3.9224,3.9241,3.9247,3.9252,3.9251,3.9172,0,0,0,0,0,3.919,3.9203,3.92,3.9224,3.9226,3.9219,3.9225,3.9217,3.922,3.9222,3.922,3.9223,3.9233,3.9241,3.925,3.928,3.9279,3.9294,3.9299,3.9304,3.9306,3.9322,3.9328,3.9259,3.9259,3.9259,0,0,3.9209,3.921,3.9218,3.923,3.9231,3.9245,3.922,3.9236,3.9245,3.9224,3.9244,3.9243,3.9246,3.9272,3.9283,3.9272,3.9326,3.9307,3.9311,3.9311,3.9326,3.9332,3.9338,3.9261,3.9261,3.9261,0,0,3.9252,3.9254,3.9274,3.9277,3.928,3.9275,3.9281,3.9281,3.9279,3.93,3.9284,3.9295,3.9314,3.9316,3.932,3.9366,3.9352,3.9369,3.9396,3.9411,3.9417,3.9421,3.9437,3.9442,3.9373,3.9373,3.9373,0,3.9275,3.9295,3.9285,3.9302,3.9307,3.929,3.931,3.9313,3.9319,3.9323,3.9311,3.9335,3.9335,3.9361,3.9373,3.9377,3.9382,3.9368,3.9417,3.9421,3.9426,3.944,3.9446,3.9375,3.9374,3.9374,3.9374,0,3.9324,3.9338,3.9354,3.9361,3.9369,3.9387,3.938,3.9389,3.9381,3.9377,3.9399,3.9399,3.9408,3.9414,3.9406,3.944,3.9433,3.9419,3.9397,3.9434,3.9448,3.9453,3.9378,3.9377,3.9376,3.9376,0,0,3.9382,3.9385,3.9391,3.9394,3.9398,3.9408,3.9427,3.9436,3.9444,3.9449,3.9464,3.9481,3.9468,3.9473,3.9465,3.9479,3.9514,3.9463,3.9463,3.9472,3.955,3.9559,3.9565,3.9506,3.9507,3.9508,3.9549,0,3.9423,3.9453,3.9446,3.9476,3.9489,3.9474,3.9489,3.9493,3.9491,3.9501,3.9499,3.9511,3.9494,3.9497,3.951,3.9507,3.9529,3.9504,3.9518,3.9519,3.9516,3.9573,3.9582,3.9621,3.9554,3.9555,3.9556,0,3.9473,3.9482,3.9514,3.9516,3.9521,3.9535,3.9544,3.9555,3.9559,3.9556,3.9562,3.9552,3.957,3.9549,3.9573,3.9556,3.9562,3.9561,3.9563,3.9562,3.9538,3.9572,3.9633,3.9639,3.9564,3.9564,3.9563,0,3.9512,3.9531,3.9553,3.9556,3.9559,3.957,3.9571,3.9575,3.9581,3.9589,3.9593,3.9603,3.9608,3.9615,3.9608,3.9594,3.9633,3.9612,3.9631,3.9631,3.9638,3.9637,3.9699,3.9644,3.9644,3.9644,3.9644,0,3.9557,3.9577,3.957,3.9583,3.9605,3.9596,3.9618,3.9618,3.9622,3.9634,3.9622,3.9634,3.9624,3.9636,3.963,3.9651,3.9653,3.9651,3.9649,3.9651,3.9651,3.9653,3.965,3.9646,3.9645,3.9645,3.9645,0,3.9602,3.9598,3.9621,3.9623,3.9624,3.964,3.9641,3.9653,3.9651,3.9667,3.9671,3.9667,3.9679,3.9674,3.9687,3.9683,3.9709,3.9704,3.9708,3.9706,3.9725,3.9722,3.9789,3.9797,3.9738,3.9739,3.9739,0,3.963,3.9645,3.9649,3.9657,3.966,3.9673,3.968,3.9673,3.9681,3.9688,3.9699,3.9711,3.972,3.9741,3.9739,3.9749,3.9743,3.9766,3.9745,3.9746,3.9742,3.9741,3.9742,3.977,3.977,3.9771,3.9771,0,3.9681,3.9678,3.9689,3.97,3.9709,3.9717,3.9724,3.9731,3.9724,3.9733,3.9747,3.9754,3.9768,3.978,3.9789,3.979,3.9779,3.9779,3.9783,3.9785,3.9786,3.9784,3.9718,3.9777,3.9776,3.9776,3.9775,3.9775,3.9717,3.973,3.9735,3.9748,3.9753,3.9759,3.9771,3.9771,3.9782,3.9793,3.9789,3.9804,3.9808,3.982,3.9823,3.9834,3.9825,3.9832,3.9834,3.9835,3.9837,3.9785,3.9836,3.9836,3.9836,3.9836,3.9836,0,3.9766,3.9769,3.9781,3.9791,3.9801,3.9792,3.9799,3.9808,3.9822,3.9828,3.9837,3.9852,3.9864,3.9864,3.9875,3.9884,3.9879,3.9887,3.9885,3.9886,3.9845,3.984,3.989,3.989,3.989,3.989,3.989,3.989,3.9792,3.9813,3.9812,3.9835,3.9838,3.9853,3.9858,3.9865,3.9869,3.9887,3.9897,3.9897,3.99,3.9911,3.9922,3.9921,3.9925,3.9934,3.9932,3.9894,3.9888,3.9883,3.9878,3.9936,3.9936,3.9971,3.9971,3.9971]}]]